TimeEST,TemperatureF,Dew PointF,Humidity,Sea Level PressureIn,VisibilityMPH,Wind Direction,Wind SpeedMPH,Gust SpeedMPH,PrecipitationIn,Events,Conditions,WindDirDegrees,DateUTC
12:54 AM,25.0,23.0,92,30.07,5.0,SSE,8.1,-,N/A,,Overcast,160,2013-02-23 05:54:00
1:32 AM,24.8,24.8,100,29.97,4.0,SSE,4.6,-,N/A,,Overcast,160,2013-02-23 06:32:00
2:54 AM,26.1,24.1,92,30.05,4.0,South,9.2,-,N/A,,Overcast,170,2013-02-23 07:54:00
3:54 AM,26.1,25.0,96,30.01,4.0,South,3.5,-,N/A,,Overcast,170,2013-02-23 08:54:00
4:54 AM,27.0,25.0,92,30.01,5.0,South,9.2,-,N/A,,Overcast,170,2013-02-23 09:54:00
5:02 AM,26.6,24.8,93,29.92,5.0,South,9.2,-,N/A,,Overcast,170,2013-02-23 10:02:00
5:32 AM,26.6,24.8,93,29.92,6.0,South,9.2,-,N/A,,Overcast,190,2013-02-23 10:32:00
5:54 AM,27.0,25.0,92,30.01,6.0,South,9.2,-,N/A,,Overcast,170,2013-02-23 10:54:00
7:54 AM,28.9,27.0,92,29.99,5.0,South,4.6,-,N/A,,Overcast,180,2013-02-23 12:54:00
8:54 AM,30.0,28.0,92,29.97,4.0,Calm,Calm,-,N/A,,Mostly Cloudy,0,2013-02-23 13:54:00
9:46 AM,30.2,28.4,93,29.88,2.5,Variable,3.5,-,N/A,,Overcast,0,2013-02-23 14:46:00
9:54 AM,30.0,28.9,96,29.97,2.5,West,3.5,-,N/A,,Overcast,260,2013-02-23 14:54:00
10:54 AM,30.9,28.9,92,29.96,2.5,Calm,Calm,-,N/A,,Overcast,0,2013-02-23 15:54:00
11:02 AM,30.2,30.2,100,29.88,3.0,South,3.5,-,N/A,,Overcast,170,2013-02-23 16:02:00
11:54 AM,33.1,30.9,92,29.95,5.0,Calm,Calm,-,N/A,,Overcast,0,2013-02-23 16:54:00
12:19 PM,33.8,30.2,87,29.87,3.0,Calm,Calm,-,N/A,,Overcast,0,2013-02-23 17:19:00
12:54 PM,34.0,30.9,89,29.93,5.0,SSE,3.5,-,N/A,,Overcast,150,2013-02-23 17:54:00
1:54 PM,37.9,35.1,89,29.90,7.0,SW,6.9,-,N/A,,Overcast,220,2013-02-23 18:54:00
2:28 PM,39.2,35.6,87,29.82,7.0,South,4.6,-,N/A,,Mostly Cloudy,180,2013-02-23 19:28:00
2:54 PM,39.9,36.0,86,29.88,7.0,WSW,4.6,-,N/A,,Mostly Cloudy,240,2013-02-23 19:54:00
3:17 PM,39.2,33.8,81,29.80,9.0,SW,4.6,-,N/A,,Scattered Clouds,220,2013-02-23 20:17:00
3:54 PM,39.9,34.0,79,29.86,10.0,WSW,4.6,-,N/A,,Clear,250,2013-02-23 20:54:00
4:54 PM,39.0,33.1,79,29.87,8.0,NW,6.9,-,N/A,,Partly Cloudy,320,2013-02-23 21:54:00
5:54 PM,37.0,33.1,86,29.87,9.0,Calm,Calm,-,N/A,,Partly Cloudy,0,2013-02-23 22:54:00
6:54 PM,36.0,33.1,89,29.87,8.0,Calm,Calm,-,N/A,,Clear,0,2013-02-23 23:54:00
7:29 PM,35.6,32.0,87,29.81,8.0,NW,3.5,-,N/A,,Mostly Cloudy,320,2013-02-24 00:29:00
7:54 PM,35.1,30.9,85,29.87,6.0,NW,6.9,-,N/A,,Overcast,320,2013-02-24 00:54:00
8:04 PM,35.6,30.2,81,29.80,7.0,NW,6.9,-,N/A,,Overcast,320,2013-02-24 01:04:00
8:54 PM,35.1,30.9,85,29.86,8.0,Calm,Calm,-,N/A,,Overcast,0,2013-02-24 01:54:00
9:54 PM,34.0,30.9,89,29.87,7.0,NNW,4.6,-,N/A,,Overcast,330,2013-02-24 02:54:00
10:25 PM,33.8,30.2,87,29.79,7.0,Calm,Calm,-,N/A,,Overcast,0,2013-02-24 03:25:00
10:54 PM,34.0,30.9,89,29.84,7.0,Calm,Calm,-,N/A,,Overcast,0,2013-02-24 03:54:00
11:08 PM,33.8,30.2,87,29.78,6.0,Calm,Calm,-,N/A,,Mostly Cloudy,0,2013-02-24 04:08:00
11:54 PM,34.0,30.0,85,29.83,7.0,Calm,Calm,-,N/A,,Overcast,0,2013-02-24 04:54:00